COSMOS 2299

Satellite information

Favourite Embed

Satellite Type and Status

PAYLOADIN ORBIT

Key statistics

Satellite COSMOS 2299 at a glance.

Uptime

11269

Days in orbit

Revolutions

≈ 12.6

Per day

Orbit

LEO

Low Earth Orbit

Inclination

82.6

Latest

Satellite identification and parameters

Extended collection of information and parameters for COSMOS 2299.

Object identification

Identified? True

Debris? False

Object name: COSMOS 2299

International designator: 1994-086A

Object number (NORAD): 23441

Object ID (CCSDS): 23441

Country: COMMONWEALTH OF INDEPENDENT STATES (CIS)

Current information (Y/N): Y

RCS size: MEDIUM

Orbital parameters

Period: 113.943 minutes

Inclination: 82.567 deg

SMA: 7785.475 km

Apoapsis: 1412.842 km

Periapsis: 1401.838 km

RAAN: 82.7932 deg

Eccentricy: 0.00070667

Argument of periapsis: 5.2329 deg

Mean anomaly: 354.8835 deg

Mean motion: 12.63790507 rev/day

Mean motion (dot): 0.00000049 rev/day2

B* drag term: 0.00021186559 1/REarth

Two-line elements (TLE)

Creation date: Nov. 1, 2025, 7:40 p.m.

Reference frame: TEME

Reference center: EARTH

Epoch: Nov. 1, 2025, 10:11 a.m. UTC

TLE line 0: 0 COSMOS 2299

TLE line 1: 1 23441U 94086A 25305.42449429 .00000049 00000-0 21187-3 0 9999

TLE line 2: 2 23441 82.5670 82.7932 0007067 5.2329 354.8835 12.63790507422932

Live tracking on map

Real-time ground track for satellite COSMOS 2299.

In-orbit conjunctions

There are no conjunctions computed for COSMOS 2299, at the moment. Check back to stay up to date, as we update our databases every day.

Go to all conjunctions

Associated space launch

Second generation store-dump military communications satellites

COSMOS 2299 was lifted into orbit during the mission ‘Tsiklon-3 | Strela-3 107 to 112’, on board a Tsiklon-3 space rocket.

The launch took place on Dec. 26, 1994, 10:26 p.m. from 32/2.

For more information about the launch, click the button.

Launch to space Tsiklon-3 | Strela-3 107 to 112
Tsiklon-3 | Strela-3 107 to 112

Agency: N/A

Status: Launch Successful

Launch date: Dec. 26, 1994, 10:26 p.m. UTC

Rocket: Tsiklon-3

Launch pad: 32/2

Location: Plesetsk Cosmodrome, Russian Federation

...

Latest news about this satellite

There are no fresh news available about this satellite. Check back as we update our databases every day.


Newsletter sign-up

Weekly statistics, charts and insights to help you stay on top of the space industry.